{"data":{"norad_id":65437,"epoch":"2026-09-20T18:05:11.225760Z","epoch_age_seconds":92982,"freshness":"FRESH","line1":"1 65437U 25194D   26263.75360215  .00060067  00000+0  18467-2 0  9990","line2":"2 65437  97.2839 113.3477 0001592 131.3897 228.7483 15.33470451 59102","mean_motion":15.33470451,"eccentricity":0.0001592,"inclination_deg":97.2839,"raan_deg":113.3477,"arg_perigee_deg":131.3897,"mean_anomaly_deg":228.7483,"bstar":0.0018467,"rev_number":5910,"period_min":93.904646096112,"perigee_km":464.37794942712,"apogee_km":466.5569530844,"semimajor_km":6843.6044512558,"source":"CELESTRAK","updated_at":"2026-09-21T09:00:35.608966Z"}}